sat.trackr.live / text

‹ back to catalog

LEMUR-2-LAILA

NORAD 66776 · 2025-276DQ

PAYLOAD ACTIVE UNKNOWN

§ Identity

Operator
Country
US
Launch date
2025-11-28
Launch site
AFWTR
Launch vehicle
Mass (kg)
RCS (m²)

Purposes: earth_obs

External: N2YO · Heavens-Above · Gunter

§ Orbital elements

Epoch: 2026-09-19T10:48:17.145216Z

Period
94.60 min
Inclination
97.4093°
Eccentricity
0.0001540
Mean motion
15.22149450 rev/d
Perigee alt
498.3 km
Apogee alt
500.4 km
Semi-major
6,877.5 km
B*
1.5978e-4
RAAN
334.9620°
Arg perigee
143.1405°
Mean anomaly
216.9938°
Rev number
4,478

§ Raw data

LEMUR-2-LAILA1 66776U 25276DQ  26262.45019844  .00003594  00000+0  15978-3 0  99902 66776  97.4093 334.9620 0001540 143.1405 216.9938 15.22149450 44785

JSON: /api/v1/satellites/66776 · /tle

For live sub-satellite position, see the globe view (requires WebGL).

§ Visibility from observer

Set your observer location to see the next 7 days of passes ≥ 10°. The values pass through the URL so the page stays shareable.

No JS? Fill the form by hand. The geolocation button needs JavaScript.